Regional Weather Roundup
Issued by NWS Cleveland, OH

Home | Current Version | Previous Version | Text Only | Print | Product List | Glossary Off
Versions: 1 2 3 4 5 6 7 8 9 10 11 12 13 14 15 16 17 18 19 20 21 22 23 24 25 26 27 28 29 30 31 32 33 34 35 36 37 38 39 40 41 42 43 44 45 46 47 48 49 50

000
ASUS41 KCLE 302302
RWRCLE
OHIO REGIONAL WEATHER ROUNDUP
NATIONAL WEATHER SERVICE CLEVELAND, OH
700 PM EDT SAT MAY 30 2015

NOTE: "FAIR" INDICATES FEW OR NO CLOUDS BELOW 12,000 FEET WITH NO
SIGNIFICANT WEATHER AND/OR OBSTRUCTIONS TO VISIBILITY.

OHZ001>008-015>018-024>027-034-035-043-044-310000-
   NORTHWEST OHIO

CITY           SKY/WX    TMP DP  RH WIND       PRES   REMARKS
DEFIANCE       CLOUDY    72  65  78 S3        29.95F
FINDLAY        LGT RAIN  69  65  86 SW7       29.95F
TOLEDO EXPRESS LGT RAIN  70  68  93 S6        29.95R FOG
TOLEDO EXEC    LGT RAIN  68  63  84 SW9       29.96R
LIMA           CLOUDY    69  66  90 SE6       29.97S
$$

OHZ009>014-019>023-028>033-038-089-310000-
   NORTHEAST OHIO

CITY           SKY/WX    TMP DP  RH WIND       PRES   REMARKS
CLE-HOPKINS    TSTM      68  66  93 SE7       30.01R FOG
CLE-LAKEFRONT  HVY RAIN  69  65  86 SW30G38   30.00R VSB 3/4
CUY CO. ARPT   TSTM      70  70 100 SE12      29.97F FOG
LORAIN-ELYRIA  PTSUNNY   71  70  96 CALM      29.97S
ASHTABULA      MOSUNNY   77  65  66 SW3       29.98F
AKRON-CANTON   LGT RAIN  76  66  71 S10       29.98F
WOOSTER        PTSUNNY   75  69  81 S8        29.98F
MANSFIELD      PTSUNNY   76  69  79 VRB5      29.97S
YOUNGSTOWN     MOSUNNY   79  65  62 S9        29.98F
$$

OHZ042-051>053-060>062-070>072-077>081-310000-
  SOUTHWEST OHIO

CITY           SKY/WX    TMP DP  RH WIND       PRES   REMARKS
CINC-COVINGTON PTSUNNY   77  65  66 SW8       29.96S
CINC-LUNKEN    MOSUNNY   79  65  62 SW9       29.95S
HAMILTON       MOSUNNY   81  70  69 VRB3      29.95S
DAYTON         CLOUDY    73  68  84 SE8       29.98R
WRIGHT-PAT AFB PTSUNNY   69  66  89 CALM      29.97F THUNDER
DAYTON GENERAL PTSUNNY   72  68  87 E7        29.97R THUNDER
WILMINGTON     PTSUNNY   81  62  52 S17G26    29.96S
$$

OHZ036-037-039>041-045>050-054>059-063>069-073>076-082>088-310000-
  CENTRAL AND SOUTHEAST OHIO

CITY           SKY/WX    TMP DP  RH WIND       PRES   REMARKS
COLUMBUS       PTSUNNY   73  68  84 SW3       29.98R
OSU AIRPORT    PTSUNNY   76  67  73 S8        29.97R
BOLTON FIELD   CLOUDY    73  70  88 S3        29.98S
RICKENBACK AFB NOT AVBL
NEWARK         MOSUNNY   80  66  62 S7        29.97S
MARION         PTSUNNY   74  64  71 W15       30.01R
LANCASTER      MOSUNNY   81  66  60 S10       29.98F
ZANESVILLE     NOT AVBL
NEW PHILLY     MOSUNNY   77  69  76 S8        29.99F
$$


USA.gov is the U.S. government's official web portal to all federal, state and local government web resources and services.